Albuquerque Double Eagle, NM

6:16 AM MDT on May 26, 2018 (GMT -0600)
Double Eagle Ii

Weather History for KAEG - April, 2014

Change the Weather History Date:

Saturday, April 26, 2014

  Actual Average (KABQ) Record (KABQ)
Temperature  
Mean Temperature 52 °F -  
Max Temperature 70 °F 72 °F 87 °F (2012)
Min Temperature 33 °F 42 °F 28 °F (1984)
Degree Days  
Heating Degree Days 14    
Growing Degree Days 2 (Base 50)    
Moisture  
Dew Point 18 °F    
Average Humidity 37    
Maximum Humidity 87    
Minimum Humidity 13    
Precipitation  
Precipitation 0.00 in - - ()
Sea Level Pressure  
Sea Level Pressure 29.76 in    
Wind  
Wind Speed 16 mph (WSW)    
Max Wind Speed 37 mph    
Max Gust Speed 51 mph    
Visibility 10 miles    
Events      
Averages and records for this station are not official NWS values.
T = Trace of Precipitation, MM = Missing Value Source: NWS Daily Summary

Daily Weather History Graph

Daily Weather History Graph

Search for Another Location

Airport or City:

Astronomy

Apr. 26, 2014 Rise Set
Actual Time 6:21 AM MDT 7:48 PM MDT
Civil Twilight 5:54 AM MDT 8:15 PM MDT
Nautical Twilight 5:22 AM MDT 8:47 PM MDT
Astronomical Twilight 4:49 AM MDT 9:21 PM MDT
Moon 4:40 AM MDT 5:25 PM MDT
Length of Visible Light 14h 20m
Length of Day
13h 27m
Waning Crescent, 8% of the Moon is Illuminated
Apr 26
Waning Crescent
Apr 29
New
May 6
First Quarter
May 14
Full
May 21
Last Quarter

Hourly Weather History & Observations

Time (MDT) Temp. Windchill Dew Point Humidity Pressure Visibility Wind Dir Wind Speed Gust Speed Precip Events Conditions
12:15 AM 56.3 °F - 10.4 °F 16% 29.86 in 10.0 mi West 12.7 mph - N/A   Clear
12:35 AM 57.6 °F - 10.0 °F 15% 29.86 in 10.0 mi WSW 13.8 mph - N/A   Clear
12:55 AM 55.2 °F - 9.5 °F 16% 29.86 in 10.0 mi WSW 11.5 mph - N/A   Clear
1:15 AM 53.1 °F - 9.3 °F 17% 29.85 in 10.0 mi WSW 9.2 mph - N/A   Clear
1:35 AM 48.7 °F - 9.1 °F 20% 29.85 in 10.0 mi WSW 9.2 mph - N/A   Clear
1:55 AM 48.7 °F - 9.3 °F 20% 29.84 in 10.0 mi WSW 10.4 mph - N/A   Clear
2:15 AM 50.0 °F - 9.5 °F 20% 29.84 in 10.0 mi WSW 11.5 mph - N/A   Clear
2:35 AM 48.6 °F - 9.1 °F 20% 29.83 in 10.0 mi WSW 11.5 mph - N/A   Clear
2:55 AM 48.4 °F - 9.3 °F 21% 29.83 in 10.0 mi WSW 10.4 mph - N/A   Clear
3:15 AM 48.2 °F - 9.5 °F 21% 29.82 in 10.0 mi WSW 10.4 mph - N/A   Clear
3:35 AM 49.8 °F - 10.4 °F 20% 29.81 in 10.0 mi WSW 11.5 mph - N/A   Clear
3:55 AM 50.5 °F - 10.4 °F 20% 29.80 in 10.0 mi West 11.5 mph - N/A   Clear
4:15 AM 50.5 °F - 11.1 °F 21% 29.79 in 10.0 mi WSW 9.2 mph - N/A   Clear
4:35 AM 49.1 °F - 11.3 °F 22% 29.80 in 10.0 mi SSW 3.5 mph - N/A   Clear
5:48 AM 44.6 °F 39.2 °F 10.4 °F 25% 29.78 in 10.0 mi SSW 10.4 mph - N/A   Mostly Cloudy
6:48 AM 48.2 °F - 12.2 °F 24% 29.77 in 10.0 mi SSW 10.4 mph - N/A   Mostly Cloudy
8:48 AM 62.6 °F - 10.4 °F 13% 29.76 in 10.0 mi South 25.3 mph 32.2 mph N/A   Mostly Cloudy
9:48 AM 64.4 °F - 12.2 °F 13% 29.75 in 10.0 mi South 28.8 mph 35.7 mph N/A   Mostly Cloudy
10:48 AM 66.2 °F - 14.0 °F 13% 29.73 in 10.0 mi SSE 24.2 mph 35.7 mph N/A   Mostly Cloudy
11:48 AM 69.8 °F - 15.8 °F 13% 29.69 in 10.0 mi SSW 25.3 mph 34.5 mph N/A   Mostly Cloudy
12:50 PM 68.0 °F - 17.6 °F 15% 29.65 in 10.0 mi SSW 28.8 mph 39.1 mph N/A   Mostly Cloudy
1:49 PM 66.2 °F - 17.6 °F 15% 29.63 in 10.0 mi SSW 28.8 mph 38.0 mph N/A   Overcast
3:50 PM 66.2 °F - 19.4 °F 17% 29.57 in 10.0 mi SSW 32.2 mph 41.4 mph N/A   Overcast
4:50 PM 66.2 °F - 21.2 °F 18% 29.56 in 7.0 mi SSW 34.5 mph 46.0 mph N/A   Widespread Dust
5:48 PM 55.4 °F - 30.2 °F 38% 29.62 in 5.0 mi West 36.8 mph 46.0 mph N/A   Widespread Dust
6:48 PM 39.2 °F 26.3 °F 35.6 °F 87% 29.70 in 5.0 mi West 36.8 mph 50.6 mph N/A   Light Drizzle
7:50 PM 41.0 °F 31.4 °F 32.0 °F 70% 29.73 in 10.0 mi WSW 21.9 mph 28.8 mph N/A   Mostly Cloudy
8:50 PM 37.4 °F 27.2 °F 26.6 °F 65% 29.75 in 10.0 mi WSW 19.6 mph - N/A   Clear
9:15 PM 37.6 °F 26.6 °F 26.4 °F 64% 29.77 in 10.0 mi West 23.0 mph - N/A   Clear
9:35 PM 36.9 °F 25.9 °F 26.6 °F 66% 29.78 in 10.0 mi West 21.9 mph 29.9 mph N/A   Clear
9:50 PM 35.6 °F 24.2 °F 26.6 °F 70% 29.78 in 10.0 mi WSW 21.9 mph 27.6 mph N/A   Clear
9:55 PM 36.9 °F 25.9 °F 26.2 °F 65% 29.77 in 10.0 mi West 21.9 mph 27.6 mph N/A   Clear
10:15 PM 35.8 °F 25.4 °F 26.8 °F 70% 29.78 in 10.0 mi WSW 18.4 mph - N/A   Clear
10:35 PM 36.0 °F 25.6 °F 27.1 °F 70% 29.77 in 10.0 mi WSW 18.4 mph 26.5 mph N/A   Mostly Cloudy
10:55 PM 35.6 °F 24.2 °F 27.3 °F 72% 29.77 in 10.0 mi West 21.9 mph 26.5 mph N/A   Scattered Clouds
11:15 PM 35.1 °F 23.5 °F 27.3 °F 73% 29.75 in 10.0 mi WSW 21.9 mph - N/A   Scattered Clouds
11:35 PM 34.2 °F 25.2 °F 28.0 °F 78% 29.77 in 10.0 mi WSW 12.7 mph 18.4 mph N/A   Clear
11:55 PM 33.1 °F 30.0 °F 28.4 °F 83% 29.78 in 10.0 mi WSW 3.5 mph - N/A   Clear